Location: Piotrkow Trybunalski
(51.4000°N, 19.6830°E)
Time: 23:59:35
(UTC+02:00)

STRAND 1 - Pass Details

Date: 05 April 2023
Orbit: 767 x 779 km, 98.4° (Epoch: 06 June)

Event Time Altitude Azimuth Distance (km) Brightness Sun altitude
Rises 21:32:50 0° 4° (N) 3,253 ? -19.4°
Reaches altitude 10° 21:35:59 10° 344° (NNW) 2,321 ? -19.8°
Maximum altitude 21:38:59 16° 307° (NW) 1,932 ? -20.1°
Drops below altitude 10° 21:41:58 10° 271° (W) 2,312 ? -20.5°
Sets 21:45:06 0° 251° (WSW) 3,235 ? -20.9°
